New Bedford, MA

6:48 AM EDT on August 24, 2017 (GMT -0400)
New Bedford Regional

Weather History for KEWB - October, 2012

Change the Weather History Date:

Wednesday, October 24, 2012

  Actual Average Record
Temperature  
Mean Temperature 51 °F -  
Max Temperature 55 °F 61 °F 75 °F (1972)
Min Temperature 48 °F 45 °F 24 °F (2008)
Degree Days  
Heating Degree Days 14    
Growing Degree Days 1 (Base 50)    
Moisture  
Dew Point 45 °F    
Average Humidity 77    
Maximum Humidity 93    
Minimum Humidity 64    
Precipitation  
Precipitation 0.01 in - - ()
Sea Level Pressure  
Sea Level Pressure 30.16 in    
Wind  
Wind Speed 2 mph (NNE)    
Max Wind Speed 8 mph    
Max Gust Speed -    
Visibility 10 miles    
Events Rain    
Averages and records for this station are not official NWS values.
T = Trace of Precipitation, MM = Missing Value Source: NWS Daily Summary

Daily Weather History Graph

Daily Weather History Graph

Search for Another Location

Airport or City:

Trip Planner

Search our weather history database for the weather conditions in past years. The results will help you decide how hot, cold, wet, or windy it might be!

Date:

Astronomy

Oct. 24, 2012 Rise Set
Actual Time 7:06 AM EDT 5:48 PM EDT
Civil Twilight 6:38 AM EDT 6:16 PM EDT
Nautical Twilight 6:05 AM EDT 6:49 PM EDT
Astronomical Twilight 5:33 AM EDT 7:21 PM EDT
Moon 3:06 PM EDT 1:54 AM EDT
Length of Visible Light 11h 38m
Length of Day
10h 41m
Waxing Gibbous, 76% of the Moon is Illuminated
Oct 24
Waxing Gibbous
Oct 29
Full
Nov 6
Last Quarter
Nov 13
New
Nov 20
First Quarter

Hourly Weather History & Observations

Time (EDT) Temp. Dew Point Humidity Pressure Visibility Wind Dir Wind Speed Gust Speed Precip Events Conditions
12:53 AM 54.0 °F 52.0 °F 93% 30.11 in 9.0 mi Calm Calm - 0.01 in Rain Light Rain
1:53 AM 54.0 °F 52.0 °F 93% 30.12 in 9.0 mi Calm Calm - 0.00 in   Overcast
2:53 AM 54.0 °F 51.1 °F 90% 30.12 in 10.0 mi Calm Calm - N/A   Overcast
3:53 AM 53.1 °F 48.9 °F 86% 30.12 in 10.0 mi Calm Calm - N/A   Overcast
4:53 AM 52.0 °F 48.9 °F 89% 30.12 in 10.0 mi North 3.5 mph - N/A   Overcast
5:53 AM 51.1 °F 48.0 °F 89% 30.14 in 10.0 mi North 3.5 mph - N/A   Overcast
6:53 AM 51.1 °F 46.9 °F 86% 30.15 in 10.0 mi North 4.6 mph - N/A   Overcast
7:53 AM 52.0 °F 45.0 °F 77% 30.16 in 10.0 mi Calm Calm - N/A   Overcast
8:53 AM 53.1 °F 45.0 °F 74% 30.17 in 10.0 mi NNE 6.9 mph - N/A   Mostly Cloudy
9:53 AM 53.1 °F 44.1 °F 71% 30.16 in 10.0 mi NE 6.9 mph - N/A   Mostly Cloudy
10:53 AM 54.0 °F 43.0 °F 66% 30.17 in 10.0 mi NE 6.9 mph - N/A   Mostly Cloudy
11:53 AM 53.6 °F 42.8 °F 67% 30.15 in 10.0 mi ENE 8.1 mph - N/A   Mostly Cloudy
12:53 PM 54.0 °F 42.1 °F 64% 30.16 in 10.0 mi NNE 4.6 mph - N/A   Overcast
1:53 PM 53.1 °F 42.1 °F 66% 30.15 in 10.0 mi NNE 5.8 mph - N/A   Overcast
2:53 PM 54.0 °F 42.1 °F 64% 30.14 in 10.0 mi NNE 6.9 mph - N/A   Overcast
3:53 PM 54.0 °F 42.1 °F 64% 30.14 in 10.0 mi NE 4.6 mph - N/A   Overcast
4:53 PM 54.0 °F 42.1 °F 64% 30.15 in 10.0 mi Calm Calm - N/A   Overcast
5:53 PM 53.1 °F 42.1 °F 66% 30.15 in 10.0 mi Calm Calm - N/A   Overcast
6:53 PM 51.1 °F 43.0 °F 74% 30.17 in 10.0 mi Calm Calm - N/A   Overcast
7:53 PM 50.0 °F 44.1 °F 80% 30.18 in 10.0 mi Calm Calm - N/A   Overcast
8:53 PM 50.0 °F 42.8 °F 76% 30.20 in 10.0 mi Calm Calm - N/A   Overcast
9:53 PM 48.9 °F 44.1 °F 83% 30.21 in 10.0 mi Calm Calm - N/A   Overcast
10:53 PM 50.0 °F 44.1 °F 80% 30.21 in 10.0 mi Calm Calm - N/A   Overcast
11:53 PM 48.9 °F 44.1 °F 83% 30.21 in 10.0 mi Calm Calm - N/A   Mostly Cloudy